Regional Weather Roundup
Issued by NWS

Home | Current Version | Previous Version | Text Only | Print | Product List | Glossary Off
Versions: 1 2 3 4 5 6 7 8 9 10 11 12 13 14 15 16 17 18 19 20 21 22 23 24 25 26 27 28 29 30 31 32 33 34 35 36 37 38 39 40 41 42 43 44 45 46 47 48 49 50

000
ASUS45 KTFX 220319
RWRMT
MONTANA HOURLY WEATHER ROUNDUP
NATIONAL WEATHER SERVICE GREAT FALLS MT
919 PM MDT THU AUG 21 2014

NOTE: "FAIR" INDICATES FEW OR NO CLOUDS BELOW 12000 FEET WITH NO
SIGNIFICANT WEATHER AND/OR OBSTRUCTIONS TO VISIBILITY.

* THESE STATIONS ARE NOT UNDER NWS QUALITY CONTROL. THEY DO NOT
   REPORT WEATHER SUCH AS PRECIPITATION OR FOG.

MTZ001>007-043-220400-
WEST OF THE DIVIDE
CITY           SKY/WX    TMP DP  RH WIND       PRES   REMARKS
KALISPELL      MOCLDY    59  46  62 NE12G21   30.04R
MISSOULA       CLOUDY    61  54  78 NE10      30.02R
BUTTE          TSTM      57  46  67 SW9       30.13R
MULLAN PASS    CLOUDY    52  46  80 SE9       30.09S
* ESSEX        N/A       56  44  64 NE2G8      N/A
* LINCOLN      N/A       52  50  93 E8G16      N/A
* LOOKOUT PASS N/A       57  51  80 E1         N/A
* POLSON       N/A       56  51  83 N2         N/A
* RONAN APT    MOCLDY    61  52  72 N5         N/A
* SEELEY LAKE  N/A       60  48  65 NE3G10     N/A
* THOMP F APT  CLOUDY    48  45  89 N/A        N/A
* YAAK HILL    N/A       60  51  72 NW4G9      N/A
$$

MTZ008-052>055-220400-
SOUTHWEST MONTANA
CITY           SKY/WX    TMP DP  RH WIND       PRES   REMARKS
BOZEMAN        TSTM      63  50  63 S8G17     30.10R
DILLON         CLOUDY    54  50  86 N10       30.09R
W YELLOWSTONE  CLOUDY    46  46 100 N5        30.20F
* THREE FORKS  CLOUDY    61  27  27 S6         N/A
* BOULDER HILL N/A       51  45  80 N14        N/A
* MONIDA PASS  N/A       48  45  89 E6         N/A
* RAYNOLDS PAS N/A       46  22  39 SE10G16    N/A
* WHITEHALL    N/A       63  49  60 E3         N/A
* WISE RIVER   N/A       58  44  60 S11G18     N/A
$$

MTZ009>010-012-014-046-048-049-054-220400-
EAST SLOPES AND CENTRAL MONTANA
CITY           SKY/WX    TMP DP  RH WIND       PRES   REMARKS
CUT BANK       CLOUDY    54  48  80 N10       30.18R
GREAT FALLS    CLOUDY    55  52  90 NE15      30.14R
HELENA         LGT RAIN  55  54  96 N3        30.12R
MALMSTROM AFB  CLOUDY    55  50  83 NE16      30.16R
* CONRAD       PTCLDY    54  54 100 NW7        N/A
* DEARBORN     N/A       60  51  72 NE6        N/A
* EAST GLACIER N/A       47  47 100 E10        N/A
* MONARCH      N/A       51  47  86 N9         N/A
* PENDROY      N/A       50  50 100 NE10       N/A
* ROGERS PASS  N/A       49  48  96 SE2        N/A
* SAINT MARY   N/A       48  47  96 NE2G8      N/A
* SWEET GRASS  N/A       51  51 100 NE11       N/A
* WHITE SULPH  N/A       56  48  75 N11G16     N/A
$$

MTZ011-013-016-021-035-040-045-047-050-051-220400-
NORTH CENTRAL MONTANA
CITY           SKY/WX    TMP DP  RH WIND       PRES   REMARKS
HAVRE          CLOUDY    57  50  78 N/A       30.13R
LEWISTOWN      PTCLDY    55  50  83 SW6       30.13R
* FORT BENTON  PTCLDY    57  50  78 N12       30.15R
* CHESTER      N/A       54  49  83 NE7G14     N/A
* DENTON       N/A       58  56  93 NW7G12     N/A
* GEYSER       N/A       55  53  93 NE12       N/A
* JUDITH GAP   N/A       53  51  93 NW7        N/A
* LOMA         N/A       56  51  83 VRB16G22    N/A
$$

MTZ017>020-022>027-061-062-220400-
NORTHEAST MONTANA
CITY           SKY/WX    TMP DP  RH WIND       PRES   REMARKS
GLASGOW        LGT RAIN  61  59  93 NE12      30.04S
GLENDIVE       CLOUDY    63  61  93 W6        30.05R
JORDAN         CLOUDY    61  57  87 N7        30.06R
SIDNEY         CLOUDY    68  61  78 NE7       30.02R
WOLF POINT     LGT RAIN  64  61  90 NW6       30.05R
* BEAVER HILL  N/A       62  60  93 N/A        N/A
* CIRCLE       N/A       61  59  93 NE7        N/A
* LINDSAY DVD  N/A       60  58  93 NW17       N/A
* SACO         N/A       61  58  90 NE2        N/A
$$

MTZ028>042-056>058-220400-
SOUTHCENTRAL AND SOUTHEAST MONTANA
CITY           SKY/WX    TMP DP  RH WIND       PRES   REMARKS
BAKER          LGT RAIN  64  63  97 N3        30.04R
BILLINGS       PTCLDY    59  55  87 CALM      30.10S
LIVINGSTON     CLOUDY    59  48  67 E13       30.12R
MILES CITY     CLOUDY    64  57  78 N10       30.04R
* LAUREL APT   MOCLDY    59  55  87 N/A        N/A
* ROUNDUP APT  PTCLDY    57  54  90 N/A        N/A
* ALZADA       N/A       61  60  97 N11        N/A
* HYSHAM       N/A       60  54  81 NW1        N/A
* LAME DEER    N/A       57  56  96 N13        N/A
* REED POINT   N/A       58  55  90 SE1        N/A
* ROSCOE HILL  N/A       54  49  83 N/A        N/A
$$

REGIONAL REPORTS...DAKOTAS
CITY           SKY/WX    TMP DP  RH WIND       PRES   REMARKS
WILLISTON      CLOUDY    66  57  73 N5        30.01R
DICKINSON      CLOUDY    64  61  90 NE5       29.99R
BEACH          LGT RAIN  63  63 100 NE5       30.04R
CROSBY         CLEAR     59  59 100 NE5       30.04R
TIOGA          PTCLDY    59  59 100 NE7       30.05R
WATFORD CITY   CLEAR     63  57  81 NE3       29.99R
BISMARCK       PTCLDY    72  63  73 N3        29.96R
GRAND FORKS    MOCLDY    70  70 100 NW3       29.86R
FARGO          CLEAR     70  66  87 E3        29.85F
BUFFALO SD     MOCLDY    64  57  78 NW23G32   29.93R
RAPID CITY     PTCLDY    64  57  78 N7        29.97R
$$

REGIONAL REPORTS...WYOMING/IDAHO/WASHINGTON
CITY           SKY/WX    TMP DP  RH WIND       PRES   REMARKS
GILLETTE       MOCLDY    63  55  75 N17       30.07R
SHERIDAN       CLOUDY    63  57  81 NW8       30.10R
CODY           PTCLDY    54  48  80 N8        30.15S
YELLOWSTONE LA CLOUDY    46  43  89 VRB3      30.29R
SALMON         MOCLDY    63  54  73 NW5       29.98R
MULLAN PASS    CLOUDY    52  46  80 SE9       30.09S
SAND POINT     CLOUDY    64  50  61 NE16G22   29.98R
SPOKANE        CLOUDY    68  46  45 N15       29.92R
$$

REGIONAL REPORTS...ALBERTA
CITY           SKY/WX    TMP DP  RH WIND       PRES   REMARKS
CALGARY        CLOUDY    52  45  77 NE5       30.22R
LETHBRIDGE     CLOUDY    54  52  93 E2        30.18S
MEDICINE HAT   CLOUDY    57  52  83 NE6       30.17R
EDMONTON       CLOUDY    54  43  67 NE9       30.24R
WATERTON GATE  N/A       48  48 100 N2         N/A
CARDSTON       N/A       50  48  93 NE3        N/A
MILK RIVER     N/A       52  52 100 N6         N/A
$$

REGIONAL REPORTS...SASKATCHEWAN
CITY           SKY/WX    TMP DP  RH WIND       PRES   REMARKS
SWIFT CURRENT  CLOUDY    55  55 100 N16       30.14R
REGINA         CLOUDY    61  54  78 NE9       30.08R
VAL MARIE      N/A       57  55  93 NE13G21    N/A
ASSINIBOIA     N/A       61  54  78 NE7        N/A
CORONACH       N/A       61  54  78 N8         N/A

$$




USA.gov is the U.S. government's official web portal to all federal, state and local government web resources and services.